Location: Namasale
(1.5000°N, 32.6167°E)
Time: 22:03:58
(UTC+00:00)

Sylda 4400 - Pass Details

Date: 09 April 2020
Orbit: 309 x 7002 km, 6.8° (Epoch: 02 June)

Event Time Altitude Azimuth Distance (km) Brightness Sun altitude
Rises 16:38:51 0° 258° (WSW) 4,943 9.6 -11.6°
Reaches altitude 10° 16:43:33 10° 254° (WSW) 2,995 8.2 -12.8°
Maximum altitude 16:49:35 48° 180° (S) 736 3.9 -14.3°
Enters shadow 16:51:08 26° 118° (ESE) 939 3.9 -14.7°
